This is the latest recevied weather packets stored in our database for station/object EB1GOD-1. If no packets are shown the sender has not sent any weather packets the latest 10 day(s).
| Time | Temp. | Humidity | Pressure | Rain* | Wind** | Luminosity | Snow |
|---|---|---|---|---|---|---|---|
| 1777428907 | 14.44° C | 78% | 1147.9 hPa | - | - | - | - |
| 1777428007 | 15° C | 76% | 1148.1 hPa | - | - | - | - |
| 1777427107 | 15° C | 74% | 1148.2 hPa | - | - | - | - |
| 1777426207 | 15.56° C | 73% | 1148.4 hPa | - | - | - | - |
| 1777425307 | 15.56° C | 73% | 1148.5 hPa | - | - | - | - |
| 1777424407 | 15.56° C | 72% | 1148.7 hPa | - | - | - | - |
| 1777423557 | 15.56° C | 73% | 1148.8 hPa | - | - | - | - |
| 1777423507 | 15.56° C | 73% | 1148.8 hPa | - | - | - | - |
| 1777422607 | 15.56° C | 73% | 1149 hPa | - | - | - | - |
| 1777421707 | 15° C | 74% | 1149.1 hPa | - | - | - | - |
| 1777420807 | 15.56° C | 73% | 1149.3 hPa | - | - | - | - |
| 1777419907 | 15° C | 77% | 1149.3 hPa | - | - | - | - |
| 1777419052 | 15.56° C | 74% | 1149.4 hPa | - | - | - | - |
| 1777419006 | 15.56° C | 74% | 1149.4 hPa | - | - | - | - |
| 1777418106 | 15.56° C | 73% | 1149.5 hPa | - | - | - | - |
| 1777417206 | 16.11° C | 74% | 1149.6 hPa | - | - | - | - |
| 1777416306 | 16.11° C | 70% | 1149.6 hPa | - | - | - | - |
| 1777415406 | 16.67° C | 69% | 1149.9 hPa | - | - | - | - |
| 1777414506 | 16.67° C | 69% | 1149.9 hPa | - | - | - | - |
| 1777413606 | 16.67° C | 69% | 1149.9 hPa | - | - | - | - |
| 1777412706 | 17.22° C | 69% | 1150.1 hPa | - | - | - | - |
| 1777411806 | 16.67° C | 69% | 1150.4 hPa | - | - | - | - |
| 1777410906 | 17.78° C | 68% | 1150.4 hPa | - | - | - | - |
| 1777410006 | 17.78° C | 67% | 1150.2 hPa | - | - | - | - |
| 1777409106 | 17.78° C | 68% | 1150.1 hPa | - | - | - | - |
* Rain since midnight (hover to see other rain measurements)
** Current wind speed in m/s (hover to see current wind gust speed)